Погода в Боровлянке

Россия / Курганская область     56°14′31″N   65°28′01″E
темп.,
°C
ветер,
м/с
пор.,
м/с
влажн.,
%
обл.,
%
осадки,
мм/ч
давл.,
гПа
погр.,
м
18 мая, вт
вт1823:00+19ссз2467100 1.7 101585
02:00+17з367882 0.1 1013135
05:00+16з31283100 0.1 1013346
08:00+19зсз476685 0.3 1013475
11:00+24ссз454520 0.3 10121395
14:00+25ссз564098 0.1 10122309
17:00+19с6106656 0.8 1013973
20:00+16ссв697130 0.6 1016900
19 мая, ср
ср1923:00+13ссв5872100 0.6 10191081
02:00+13ссв597094 0.0 1020801
05:00+9ссв49770 0.0 1022397
08:00+13ссв475531 0.0 1023721
11:00+17ссв56395 0.0 10231571
14:00+19ссв56345 0.0 10231874
17:00+19ссв46335 0.0 10221967
20:00+16ссв22517 0.0 102337
20 мая, чт
чт2023:00+12св2860100 0.0 1024166
02:00+9всв226472 0.0 102528
05:00+8юв11677 0.0 102610
08:00+15юз0143100 0.0 1026454
11:00+20зсз23345 0.0 10251417
14:00+23зсз45305 0.0 10231830
17:00+24зсз46315 0.0 10221780
20:00+19зюз37475 0.0 1021136
21 мая, пт
пт2123:00+16зюз310575 0.0 1022152
02:00+15з411555 0.0 1022185
05:00+14з411565 0.0 1023190
08:00+21зсз36415 0.0 1023319
11:00+26з34285 0.0 10221437
14:00+28з332433 0.0 10222156
17:00+28зюз44255 0.0 10212138
20:00+23юз36445 0.0 1022103
22 мая, сб
сб2223:00+18зюз37505 0.0 1022103
02:00+17зюз38525 0.0 1022124
05:00+16зюз38575 0.0 1023125
08:00+23зюз48393 0.0 1024383
11:00+27зюз56280 0.0 10231597
14:00+29зюз56240 0.0 10222305
17:00+29зюз46270 0.0 10212416
20:00+24зюз24440 0.0 102164